Other Surface Observations
Issued by NWS Tucson, AZ

Home | Current Version | Previous Version | Text Only | Print | Product List | Glossary On
Versions: 1 2 3 4 5 6 7 8 9 10 11 12 13 14 15 16 17 18 19 20 21 22 23 24 25 26 27 28 29 30 31 32 33 34 35 36 37 38 39 40 41 42 43 44 45 46 47 48 49 50
205
SXUS55 KTWC 090215
OSOTWC

WEATHER ROUNDUP FOR SOUTHEAST ARIZONA
NATIONAL WEATHER SERVICE TUCSON AZ
715 PM MST MON FEB 08 2016

AZZ504>506-514-090315-
LOCATION       SKY/WX    TMP DP  RH WIND       PRES   REMARKS
TUCSON         CLEAR     71  17  12 E6        30.17R
DAVIS-MONTHAN  CLEAR     69  20  15 E8        30.15R
CHILDRENS PARK N/A      N/A N/A  10 W1                PIMA CO DEQ
ALVERNON/22ND  N/A       78 N/A N/A E8                PIMA CO DEQ
CHERRY/GLENN   N/A       79 N/A N/A E7                PIMA CO DEQ
TANGERINE      N/A       78 N/A N/A W4                PIMA CO DEQ
CONTL RANCH    N/A       79  22  12 NW5               PIMA CO DEQ
GRANT/1ST      N/A       78  19  11 W3                PIMA CO DEQ
CRAYCROFT/22ND N/A       77  18  11 NE8               PIMA CO DEQ
GOLFLINKS/KOLB N/A       77  16  10 NE8               PIMA CO DEQ
AJO/12TH       N/A       79  18  10 E5                PIMA CO DEQ
SAGUARO EAST   N/A       25 -22  11 NE6               PIMA CO DEQ
FAIRGROUNDS    N/A       74 N/A N/A SE10              PIMA CO DEQ
SAGUARO        N/A       74  18  12 E7G17             *SABINO CYN
SAN CARLOS     N/A       67  22  18 SW4               *SAN CARLOS
GREEN VALLEY   N/A       75  17  11 NE10              PIMA CO DEQ
HORSE CAMP CYN N/A       63  26  24 NE8G11            *ARAVAIPA CYN
RINCON MTNS    N/A       48   1  14 NE11G17           *NR MANNING CAMP
$$

AZZ509>511-090315-
LOCATION       SKY/WX    TMP DP  RH WIND       PRES   REMARKS
SAFFORD        CLEAR     56  23  27 NE7       30.21S
STRAY HORSE    N/A       50   1  13 N6G14             *
TRAIL CABIN    N/A       47  23  38 SE3               *N OF GRANVILLE
BLACK HILLS    N/A       56  24  29 CALM              *N OF FT THOMAS
DRY LAKE       N/A       49  18  29 N6G10             *NATANES MTNS
NOON CREEK     N/A       51  17  26 SW9G12            *PINALENO MTNS
COLUMBINE      N/A       38   1  20 CALM              *PINALENO MTNS
GUTHRIE        N/A       53  16  23 S9G14             *SW OF GUTHRIE
$$

AZZ502-503-513-090315-
LOCATION       SKY/WX    TMP DP  RH WIND       PRES   REMARKS
NOGALES        PTCLDY    64  13  13 E5        30.19R
SELLS          N/A       75  15  10 N6G16             *
SASABE         N/A       70  17  13 NE7G16            *ALTAR VLY
HOPKINS        N/A       54   9  16 NE9G20            *SANTA RITA MTNS
CARR CYN       N/A       47  23  38 SW2               *W OF HEREFORD
$$

AZZ507-508-512-090315-
LOCATION       SKY/WX    TMP DP  RH WIND       PRES   REMARKS
SIERRA VISTA   PTCLDY    56  15  20 S9        30.26R
DOUGLAS        PTCLDY    59  16  18 E12       30.25R
EMPIRE MTNS    N/A       56  16  20 NW3               *LAS CIENEGAS NCA
MULESHOE RANCH N/A       62  18  18 NE9G17            *PRESERVE
HEADQUARTERS   N/A       56  16  20 E4G11             *CHIRICAHUA MTNS
$$

.............................NOTES.............................
THIS IS AN AUTOMATED COLLECTIVE WITH MINIMAL QUALITY CONTROL.
PIMA CO DEQ SITES HAVE NONSTANDARD WIND SENSOR HEIGHTS.
PIMA CO DEQ SITES DO NOT REPORT WIND GUSTS.
* INDICATES WIND SENSORS LOCATED AT 20 FEET INSTEAD OF 33 FEET.
..............................KEY..............................
SKY/WX - SKY CONDITION/WEATHER
TMP    - TEMPERATURE IN FAHRENHEIT
DP     - DEWPOINT IN FAHRENHEIT
RH     - RELATIVE HUMIDITY IN PERCENT
WIND   - DIRECTION AND SPEED IN MILES PER HOUR (MPH)
VRB    - VARIABLE WIND DIRECTION
PRES   - MEAN SEA LEVEL PRESSURE IN INCHES OF MERCURY
         F - FALLING PRESSURE   R - RISING PRESSURE
         S - STEADY PRESSURE
VSB    - VISIBILITY IN MILES
HX     - HEAT INDEX IN FAHRENHEIT
WCI    - WIND CHILL INDEX IN FAHRENHEIT
N/A    - NOT AVAILABLE
AFB    - AIR FORCE BASE
         DAVIS-MONTHAN IS DAVIS-MONTHAN AIR FORCE BASE
CYN    - CANYON
MTNS   - MOUNTAINS
NCA    - NATIONAL CONSERVATION AREA
NR     - NEAR
VLY    - VALLEY
CONTL  - CONTINENTAL
PIMA CO DEQ - PIMA COUNTY DEPT OF ENVIRONMENTAL QUALITY



USA.gov is the U.S. government's official web portal to all federal, state and local government web resources and services.